{"data":{"norad_id":43279,"epoch":"2026-05-25T04:26:44.172672Z","epoch_age_seconds":69361,"freshness":"FRESH","line1":"1 43279U 18034E   26145.18523348 -.00000104  00000+0 -17846-4 0  9999","line2":"2 43279  63.3933 151.0529 0273198   7.7515 352.7604 13.45368707399116","mean_motion":13.45368707,"eccentricity":0.0273198,"inclination_deg":63.3933,"raan_deg":151.0529,"arg_perigee_deg":7.7515,"mean_anomaly_deg":352.7604,"bstar":-1.7846e-5,"rev_number":39911,"period_min":107.03385566407,"perigee_km":885.33670795356,"apogee_km":1293.3570398294,"semimajor_km":7467.4838738915,"source":"CELESTRAK","updated_at":"2026-05-25T13:37:55.825303Z"}}